Regional Weather Roundup
Issued by NWS

Home | Current Version | Previous Version | Graphics & Text | Print | Product List | Glossary On
Versions: 1 2 3 4 5 6 7 8 9 10 11 12 13 14 15 16 17 18 19 20 21 22 23 24 25 26 27 28 29 30 31 32 33 34 35 36 37 38 39 40 41 42 43 44 45 46 47 48 49 50
750
ASUS44 KJAN 220203
RWRMS

MISSISSIPPI HOURLY WEATHER ROUNDUP
NATIONAL WEATHER SERVICE JACKSON MS
900 PM CDT TUE OCT 21 2014

NOTE: "FAIR: INDICATES FEW OR NO CLOUDS BELOW 12,000 FEET WITH NO
SIGNIFICANT WEATHER AND/OR OBSTRUCTIONS TO VISIBILITY.

MSZ001>002-007>008-010>013-018>021-025>028-034>036-220300-
NORTHWEST MISSISSIPPI

CITY           SKY/WX    TMP DP  RH WIND       PRES   REMARKS
CLARKSDALE     FAIR      59  52  77 CALM      30.09R
CLEVELAND      FAIR      61  55  78 NE5       30.06R
GREENWOOD      CLEAR     58  54  86 N7        30.06R
GREENVILLE     CLEAR     65  55  70 NE6       30.05R
GRENADA          N/A    N/A N/A N/A MISG        N/A
OLIVE BRANCH   CLEAR     57  52  82 N3        30.09R
OXFORD         FAIR      52  50  93 CALM      30.10R
TUNICA         CLEAR     57  50  77 CALM      30.09R
$$

MSZ003>006-009-014>017-022>024-029>033-037>039-220300-
NORTHEAST MISSISSIPPI

CITY           SKY/WX    TMP DP  RH WIND       PRES   REMARKS
COLUMBUS AFB   CLEAR     57  54  92 CALM      30.06R
CORINTH        FAIR      54  50  87 CALM      30.08R
GOLDN TRIANGLE CLEAR     59  48  67 N6        30.05R
STARKVILLE     FAIR      61  54  77 N3        30.06R
TUPELO         CLEAR     58  50  75 CALM      30.07R
$$

MSZ040-058-220300-
CENTRAL MISSISSIPPI

CITY           SKY/WX    TMP DP  RH WIND       PRES   REMARKS
JACKSON INTL   CLEAR     59  57  93 CALM      30.04R
JACKSON HAWKNS CLEAR     63  57  81 CALM      30.05R
MERIDIAN KEY   CLEAR     59  56  89 CALM      30.03R
MERIDIAN NAS   CLEAR     62  57  83 NW5       30.04R
RAYMOND        HAZE      59  55  88 MISG      30.04R VSB 1
VICKSBURG      CLEAR     59  57  93 CALM      30.04R
$$

MSZ059>079-220300-
SOUTH MISSISSIPPI

CITY           SKY/WX    TMP DP  RH WIND       PRES   REMARKS
BROOKHAVEN     FAIR      63  57  82 N5        30.05S
HATTIESBURG    CLEAR     61  58  90 CALM      30.03R
MCCOMB         CLEAR     62  56  80 N3        30.03R
NATCHEZ        CLEAR     61  57  88 CALM      30.04S
PINE BELT      CLEAR     59  54  82 CALM      30.04R
$$

MSZ080>082-220300-
COASTAL MISSISSIPPI

CITY           SKY/WX    TMP DP  RH WIND       PRES   REMARKS
BAY ST LOUIS   CLEAR     61  57  88 CALM      30.02R
BILOXI         CLEAR     68  62  80 VRB1      30.01R
PASCAGOULA     CLEAR     55  53  93 CALM      30.02R
GULFPORT       CLEAR     62  58  86 NW3       30.01R
$$



USA.gov is the U.S. government's official web portal to all federal, state and local government web resources and services.